DW4839 Weather Reports


time (UTC)temp
C
wind
direction
speed
KPH
gust
KPH
rain 1hr
cm
rain 24hr
cm
rain mn
cm
humidity
%
barometer
mb
20210920064043 12 219 3.2 8.0 0.00 0.20 0.18 93 1025.6
20210920063548 12 205 3.2 8.0 0.00 0.20 0.18 93 1025.5
20210920063118 12 193 4.8 8.0 0.00 0.20 0.18 93 1025.3
20210920062600 12 218 3.2 8.0 0.00 0.20 0.18 93 1025.3
20210920062043 12 207 3.2 8.0 0.00 0.20 0.18 93 1025.4
20210920061618 12 202 3.2 8.0 0.00 0.20 0.18 92 1025.2
20210920061043 12 203 3.2 6.4 0.00 0.20 0.18 92 1025.2
20210920060543 12 220 1.6 4.8 0.00 0.20 0.18 92 1025.2
20210920060217 12 220 1.6 6.4 0.00 0.20 0.18 93 1025.2
20210920055544 12 220 1.6 6.4 0.00 0.20 0.18 93 1025.1
20210920055058 12 219 3.2 6.4 0.00 0.20 0.18 93 1025.1
20210920054710 12 200 1.6 4.8 0.00 0.20 0.18 93 1025.1
20210920054044 12 200 1.6 6.4 0.03 0.20 0.18 93 1025.0
20210920053545 12 198 1.6 6.4 0.03 0.20 0.18 93 1025.1
20210920053126 12 198 3.2 6.4 0.03 0.20 0.18 93 1025.0
20210920052600 12 197 3.2 4.8 0.03 0.20 0.18 93 1025.0
20210920052046 12 197 3.2 4.8 0.03 0.20 0.18 92 1025.0
20210920051559 12 197 1.6 4.8 0.03 0.20 0.18 92 1025.0
20210920051044 12 197 1.6 4.8 0.03 0.20 0.18 92 1024.9
20210920050545 12 197 1.6 4.8 0.03 0.20 0.18 92 1024.9
20210920050203 12 197 1.6 4.8 0.03 0.20 0.18 92 1024.9
20210920045544 12 194 1.6 3.2 0.03 0.20 0.18 92 1024.9
20210920045046 12 194 1.6 4.8 0.03 0.20 0.18 92 1024.7
20210920044856 12 0 0.0 4.8 0.03 0.20 0.18 92 1024.6
20210920044045 12 0 0.0 4.8 0.00 0.18 0.15 92 1024.6
20210920043547 12 204 0.0 4.8 0.00 0.18 0.15 92 1024.6
20210920043327 12 210 1.6 4.8 0.00 0.18 0.15 92 1024.5
20210920042544 12 210 1.6 4.8 0.00 0.18 0.15 92 1024.4
20210920042110 12 210 1.6 6.4 0.00 0.18 0.15 92 1024.3
20210920041612 12 211 3.2 6.4 0.00 0.18 0.15 92 1024.3
20210920041053 12 194 3.2 6.4 0.00 0.18 0.15 92 1024.2
20210920040548 12 0 0.0 9.7 0.00 0.18 0.15 92 1024.2
20210920040101 12 200 1.6 9.7 0.00 0.18 0.15 92 1024.2
20210920035545 12 227 3.2 6.4 0.00 0.20 0.15 92 1024.0
20210920035107 12 224 3.2 6.4 0.00 0.20 0.15 92 1024.0
20210920034801 12 218 1.6 8.0 0.00 0.20 0.15 92 1023.9
20210920034052 12 196 3.2 14.5 0.00 0.20 0.15 92 1023.7
20210920033546 12 184 3.2 14.5 0.00 0.20 0.15 92 1023.6
20210920033104 12 215 3.2 6.4 0.00 0.20 0.15 92 1023.5
20210920032548 12 211 3.2 6.4 0.00 0.20 0.15 92 1023.5
20210920032043 12 211 3.2 6.4 0.00 0.20 0.15 92 1023.4
20210920031636 12 190 1.6 8.0 0.00 0.20 0.15 92 1023.2
20210920031052 12 210 3.2 8.0 0.00 0.20 0.15 92 1023.1
20210920030551 12 207 3.2 6.4 0.00 0.20 0.15 92 1023.1
20210920030130 12 204 3.2 6.4 0.00 0.20 0.15 91 1023.0
20210920025542 12 187 1.6 4.8 0.00 0.20 0.15 91 1023.0
20210920025101 12 187 1.6 6.4 0.00 0.20 0.15 91 1022.9
20210920024634 12 180 1.6 6.4 0.00 0.20 0.15 91 1022.8
20210920024045 12 205 1.6 6.4 0.00 0.20 0.15 91 1022.7
20210920023554 12 202 1.6 6.4 0.00 0.20 0.15 91 1022.8
20210920023109 12 190 3.2 6.4 0.03 0.20 0.15 91 1022.8
20210920022543 12 213 1.6 6.4 0.03 0.20 0.15 91 1022.6
20210920022043 13 244 1.6 9.7 0.03 0.20 0.15 91 1022.6
20210920021639 13 213 1.6 9.7 0.03 0.20 0.15 91 1022.6
20210920021056 13 188 3.2 6.4 0.03 0.20 0.15 91 1022.5
20210920020556 13 202 3.2 8.0 0.03 0.20 0.15 90 1022.5
20210920020123 13 204 3.2 8.0 0.03 0.20 0.15 90 1022.5
20210920015550 13 204 1.6 4.8 0.03 0.23 0.15 90 1022.5
20210920015044 13 221 1.6 8.0 0.03 0.23 0.15 90 1022.4
20210920014614 12 221 1.6 8.0 0.03 0.23 0.15 90 1022.3
20210920014043 12 230 0.0 8.0 0.03 0.23 0.15 90 1022.3
20210920013551 12 228 1.6 11.3 0.03 0.23 0.15 90 1022.3
20210920013252 12 197 1.6 11.3 0.00 0.20 0.13 90 1022.2
20210920012555 12 194 3.2 8.0 0.00 0.20 0.13 90 1022.2
20210920012044 12 0 0.0 4.8 0.00 0.20 0.13 90 1022.2
20210920011611 12 0 1.6 6.4 0.00 0.20 0.13 90 1022.1
20210920011044 12 193 1.6 6.4 0.00 0.20 0.13 90 1022.0
20210920010601 12 0 0.0 4.8 0.00 0.20 0.13 90 1022.1
20210920010213 12 0 0.0 4.8 0.00 0.20 0.13 90 1022.0
20210920005545 12 246 0.0 12.9 0.00 0.23 0.13 90 1022.0
20210920005043 12 0 1.6 12.9 0.00 0.23 0.13 90 1021.9
20210920004702 13 0 0.0 8.0 0.00 0.23 0.13 89 1021.9
20210920004045 13 0 3.2 14.5 0.00 0.23 0.13 90 1021.8
20210920003547 13 225 3.2 14.5 0.00 0.23 0.13 89 1021.7
20210920003101 13 211 1.6 8.0 0.00 0.23 0.13 90 1021.7
20210920002616 13 126 1.6 9.7 0.00 0.23 0.13 89 1021.6
20210920002044 13 0 3.2 12.9 0.00 0.23 0.13 90 1021.6
20210920001649 13 271 4.8 12.9 0.00 0.23 0.13 91 1021.6
20210920001046 13 5 1.6 6.4 0.00 0.23 0.13 93 1021.5
20210920000550 13 313 1.6 6.4 0.00 0.23 0.13 92 1021.5
20210920000125 13 182 1.6 6.4 0.00 0.23 0.13 93 1021.4
20210919235543 13 0 0.0 11.3 0.00 0.23 0.13 92 1021.5
20210919235042 13 200 4.8 11.3 0.00 0.23 0.13 91 1021.4
20210919234809 13 198 3.2 11.3 0.00 0.23 0.13 91 1021.4
20210919234045 13 194 3.2 22.5 0.00 0.23 0.13 91 1021.3
20210919233546 13 182 4.8 22.5 0.00 0.23 0.13 91 1021.3
20210919233109 13 180 8.0 17.7 0.00 0.23 0.13 91 1021.2
20210919232545 13 187 6.4 12.9 0.00 0.23 0.13 92 1021.3
20210919232051 13 182 3.2 11.3 0.03 0.23 0.13 92 1021.4
20210919231702 13 209 4.8 16.1 0.03 0.23 0.13 91 1021.4
20210919231049 14 176 8.0 19.3 0.03 0.23 0.13 88 1021.2
20210919230604 14 194 6.4 19.3 0.03 0.23 0.13 86 1021.1
20210919230125 15 213 6.4 20.9 0.03 0.23 0.13 87 1021.2
20210919225551 15 210 8.0 25.7 0.03 0.28 0.13 86 1021.1
20210919225050 15 167 9.7 25.7 0.03 0.28 0.13 86 1021.0
20210919224609 15 207 8.0 20.9 0.03 0.28 0.13 86 1021.0
20210919224053 15 188 6.4 27.4 0.03 0.28 0.13 86 1021.0
20210919223603 15 184 9.7 27.4 0.03 0.28 0.13 85 1021.0
20210919223153 15 191 8.0 19.3 0.03 0.28 0.13 87 1020.8
20210919222548 15 251 6.4 17.7 0.03 0.28 0.13 89 1020.9
20210919222045 14 170 9.7 19.3 0.00 0.25 0.10 89 1020.9
20210919221657 14 184 6.4 22.5 0.00 0.25 0.10 90 1020.8
20210919221050 14 227 9.7 22.5 0.00 0.25 0.10 89 1020.8
20210919220545 14 192 6.4 24.1 0.00 0.25 0.10 90 1020.8
20210919220116 14 191 4.8 24.1 0.00 0.25 0.10 91 1020.7
20210919215545 14 212 6.4 14.5 0.00 0.28 0.10 92 1020.7
20210919215043 13 178 4.8 19.3 0.00 0.28 0.10 92 1020.8
20210919214636 13 211 8.0 19.3 0.00 0.28 0.10 91 1020.7
20210919214111 13 212 8.0 17.7 0.00 0.28 0.10 91 1020.7
20210919213544 13 190 6.4 17.7 0.00 0.28 0.10 93 1020.7
20210919213111 13 244 4.8 17.7 0.00 0.28 0.10 93 1020.7
20210919212544 13 277 3.2 11.3 0.00 0.28 0.10 93 1020.7
20210919212046 13 210 3.2 8.0 0.00 0.28 0.10 92 1020.6
20210919211705 13 196 4.8 12.9 0.00 0.28 0.10 90 1020.5
20210919211045 13 188 6.4 14.5 0.00 0.28 0.10 87 1020.6
20210919210547 15 204 4.8 14.5 0.00 0.28 0.10 81 1020.6
20210919210102 15 176 6.4 16.1 0.00 0.28 0.10 79 1020.3
20210919205545 15 181 8.0 17.7 0.00 0.33 0.10 79 1020.3
20210919205044 15 168 6.4 17.7 0.00 0.33 0.10 79 1020.3
20210919204630 16 161 6.4 17.7 0.00 0.33 0.10 76 1020.1
20210919204045 16 202 8.0 17.7 0.00 0.33 0.10 75 1020.0
20210919203545 16 226 8.0 17.7 0.00 0.33 0.10 78 1020.1
20210919203106 15 181 4.8 22.5 0.00 0.33 0.10 81 1020.2
20210919202545 15 188 6.4 22.5 0.00 0.33 0.10 80 1020.3
20210919202106 15 164 6.4 14.5 0.03 0.33 0.10 81 1020.2
20210919201945 15 194 4.8 12.9 0.03 0.33 0.10 82 1020.2
20210919201058 15 236 3.2 8.0 0.03 0.33 0.10 82 1020.2
20210919200547 15 193 3.2 14.5 0.03 0.33 0.10 83 1020.2
20210919200102 14 205 4.8 16.1 0.03 0.33 0.10 85 1020.1
20210919195545 14 194 3.2 16.1 0.03 0.41 0.10 84 1020.1
20210919195051 14 188 4.8 16.1 0.03 0.41 0.10 86 1020.0
20210919194645 13 212 6.4 12.9 0.03 0.41 0.10 86 1020.1
20210919194053 13 231 3.2 12.9 0.03 0.41 0.10 86 1020.1
20210919193545 13 198 4.8 16.1 0.03 0.41 0.10 85 1020.0
20210919193118 13 198 4.8 16.1 0.03 0.41 0.10 88 1020.0
20210919192547 13 230 4.8 14.5 0.03 0.41 0.10 87 1019.9
20210919192048 13 235 3.2 16.1 0.00 0.38 0.08 87 1019.9
20210919191704 13 175 6.4 17.7 0.00 0.38 0.08 88 1019.8
20210919191043 13 169 6.4 17.7 0.00 0.38 0.08 88 1019.8
20210919190548 13 257 6.4 17.7 0.00 0.38 0.08 89 1019.6
20210919190126 13 189 6.4 17.7 0.00 0.38 0.08 91 1019.6
20210919185543 13 221 6.4 12.9 0.00 0.43 0.08 90 1019.5
20210919185045 13 171 3.2 16.1 0.00 0.43 0.08 91 1019.5
20210919184550 12 185 6.4 16.1 0.00 0.43 0.08 91 1019.4
20210919184046 12 230 6.4 12.9 0.00 0.43 0.08 92 1019.4
20210919183552 12 250 4.8 16.1 0.00 0.43 0.08 91 1019.3
20210919183147 12 209 6.4 16.1 0.00 0.43 0.08 92 1019.3
20210919182554 13 178 4.8 12.9 0.00 0.43 0.08 92 1019.2
20210919182044 13 229 6.4 19.3 0.00 0.43 0.08 92 1019.1
20210919181750 13 209 4.8 19.3 0.00 0.43 0.08 92 1019.0
20210919181047 13 177 4.8 16.1 0.00 0.43 0.08 94 1018.9
20210919180544 12 192 4.8 12.9 0.00 0.43 0.08 94 1019.0
20210919180136 12 194 4.8 12.9 0.00 0.43 0.08 94 1019.0
20210919175559 12 229 4.8 12.9 0.00 0.53 0.08 95 1018.9
20210919175045 12 160 4.8 9.7 0.00 0.53 0.08 96 1018.8
20210919174717 12 211 4.8 12.9 0.00 0.53 0.08 95 1018.8
20210919174045 12 184 3.2 12.9 0.00 0.53 0.08 95 1018.7
20210919173546 12 281 4.8 14.5 0.00 0.53 0.08 96 1018.7
20210919173137 12 203 6.4 14.5 0.00 0.53 0.08 96 1018.6
20210919172547 12 213 4.8 9.7 0.00 0.53 0.08 96 1018.5
20210919172045 12 212 3.2 11.3 0.00 0.53 0.08 96 1018.5
20210919171616 12 196 4.8 11.3 0.00 0.53 0.08 96 1018.5
20210919171043 12 156 4.8 12.9 0.00 0.53 0.08 97 1018.3
20210919170552 11 174 4.8 14.5 0.00 0.53 0.08 97 1018.2
20210919170217 11 201 4.8 14.5 0.03 0.53 0.08 97 1018.0
20210919165549 11 232 3.2 14.5 0.03 0.64 0.08 97 1017.9
20210919165049 11 198 4.8 14.5 0.03 0.64 0.08 96 1017.8
20210919164618 11 196 4.8 11.3 0.03 0.64 0.08 96 1017.6
20210919164043 11 203 3.2 9.7 0.03 0.64 0.08 97 1017.5
20210919163606 11 149 3.2 16.1 0.03 0.64 0.08 97 1017.5
20210919163132 11 204 4.8 16.1 0.03 0.64 0.08 96 1017.2
20210919162609 11 196 6.4 12.9 0.03 0.64 0.08 96 1017.1
20210919162043 11 213 4.8 12.9 0.03 0.64 0.08 96 1017.1
20210919161657 11 207 3.2 9.7 0.03 0.64 0.08 96 1017.0
20210919161045 11 208 1.6 11.3 0.03 0.64 0.08 96 1017.0
20210919160546 11 171 4.8 11.3 0.03 0.64 0.08 96 1016.9
20210919160232 11 225 3.2 9.7 0.00 0.61 0.05 96 1016.8
20210919155544 11 210 3.2 14.5 0.00 0.74 0.05 96 1016.7
20210919155055 11 171 4.8 14.5 0.00 0.74 0.05 96 1016.6
20210919154707 10 257 4.8 11.3 0.00 0.74 0.05 96 1016.3
20210919154113 10 236 3.2 14.5 0.00 0.74 0.05 96 1016.2
20210919153543 10 227 4.8 14.5 0.00 0.74 0.05 96 1016.1
20210919153224 10 242 4.8 12.9 0.00 0.74 0.05 96 1016.1
20210919152546 10 194 3.2 9.7 0.00 0.74 0.05 96 1016.0
20210919152109 10 236 3.2 14.5 0.00 0.74 0.05 96 1016.0
20210919151705 10 192 3.2 14.5 0.00 0.74 0.05 96 1015.8
20210919151053 10 211 3.2 9.7 0.00 0.74 0.05 96 1015.8
20210919150548 10 221 3.2 9.7 0.00 0.74 0.05 96 1015.7
20210919150112 10 192 3.2 8.0 0.00 0.74 0.05 96 1015.6
20210919145614 10 189 4.8 11.3 0.00 0.94 0.05 96 1015.5
20210919145043 10 252 3.2 11.3 0.00 0.94 0.05 96 1015.5
20210919144611 10 234 3.2 9.7 0.00 0.94 0.05 96 1015.3
20210919144045 10 214 1.6 8.0 0.00 0.94 0.05 96 1015.3
20210919143605 10 219 3.2 8.0 0.00 0.94 0.05 96 1015.2
20210919143229 10 187 1.6 8.0 0.00 0.94 0.05 96 1015.0
20210919142605 10 201 3.2 9.7 0.00 0.94 0.05 96 1014.9
20210919142045 10 231 3.2 16.1 0.00 0.94 0.05 96 1014.8
20210919141743 10 205 4.8 16.1 0.00 0.94 0.05 96 1014.7
20210919141045 10 215 4.8 14.5 0.00 0.94 0.05 96 1014.6
20210919140546 10 184 6.4 14.5 0.00 0.94 0.05 96 1014.6
20210919140224 10 222 4.8 12.9 0.00 0.94 0.05 96 1014.5
20210919135553 10 177 4.8 14.5 0.00 1.14 0.05 96 1014.5
20210919135135 10 178 4.8 14.5 0.03 1.14 0.05 96 1014.5
20210919134709 10 209 4.8 19.3 0.03 1.14 0.05 96 1014.4
20210919134045 10 171 4.8 25.7 0.03 1.14 0.05 96 1014.3
20210919133546 10 186 8.0 25.7 0.03 1.14 0.05 95 1014.0
20210919133207 10 173 9.7 20.9 0.03 1.14 0.05 95 1014.0
20210919132545 10 211 4.8 16.1 0.03 1.14 0.05 95 1013.9
20210919132055 10 223 4.8 16.1 0.03 1.14 0.05 95 1013.8
20210919131616 10 180 6.4 14.5 0.03 1.14 0.05 95 1013.7
20210919131052 10 142 4.8 17.7 0.03 1.14 0.05 95 1013.6
20210919130547 10 190 8.0 17.7 0.03 1.14 0.05 95 1013.5
20210919130144 10 198 6.4 16.1 0.03 1.14 0.05 95 1013.4
20210919125544 10 194 4.8 14.5 0.03 1.37 0.05 95 1013.4
20210919125046 10 190 3.2 11.3 0.00 1.32 0.03 95 1013.4
20210919124647 10 225 3.2 9.7 0.00 1.32 0.03 95 1013.3
20210919124050 10 140 3.2 9.7 0.00 1.32 0.03 95 1013.3
20210919123545 10 193 3.2 9.7 0.00 1.32 0.03 95 1013.2
20210919123141 10 186 4.8 9.7 0.00 1.32 0.03 95 1013.1
20210919122545 10 197 1.6 9.7 0.00 1.32 0.03 95 1013.1
20210919122045 10 188 3.2 9.7 0.00 1.32 0.03 95 1013.1
20210919121730 10 202 3.2 9.7 0.00 1.32 0.03 95 1013.0
20210919121059 10 175 3.2 8.0 0.00 1.32 0.03 94 1013.0
20210919120613 10 194 3.2 12.9 0.00 1.32 0.03 94 1013.0
20210919120118 10 191 3.2 12.9 0.00 1.32 0.03 94 1012.9
20210919115556 10 184 3.2 12.9 0.00 1.70 0.03 94 1012.8
20210919115109 10 189 4.8 12.9 0.00 1.70 0.03 94 1012.8
20210919114630 10 194 1.6 6.4 0.00 1.70 0.03 94 1012.8
20210919114054 10 0 1.6 4.8 0.00 1.70 0.03 94 1012.8
20210919113546 10 0 0.0 1.6 0.00 1.70 0.03 94 1012.7
20210919113117 10 0 0.0 1.6 0.00 1.70 0.03 94 1012.6
20210919112546 10 0 0.0 3.2 0.00 1.70 0.03 93 1012.5
20210919112048 10 0 0.0 3.2 0.00 1.70 0.03 93 1012.5
20210919111724 10 0 0.0 1.6 0.00 1.70 0.03 93 1012.4
20210919111105 10 0 0.0 3.2 0.00 1.70 0.03 94 1012.4
20210919110602 10 0 0.0 3.2 0.00 1.70 0.03 93 1012.4
20210919110110 10 0 0.0 3.2 0.00 1.70 0.03 93 1012.3
20210919105548 10 5 0.0 3.2 0.00 2.06 0.03 93 1012.3
20210919105050 10 0 0.0 3.2 0.00 2.06 0.03 93 1012.3
20210919104638 10 0 0.0 3.2 0.00 2.06 0.03 93 1012.3
20210919104049 10 0 0.0 4.8 0.00 2.06 0.03 93 1012.3
20210919103608 10 15 1.6 6.4 0.00 2.06 0.03 93 1012.3
20210919103119 10 20 1.6 6.4 0.00 2.06 0.03 93 1012.3
20210919102551 10 19 0.0 8.0 0.00 2.06 0.03 92 1012.2
20210919102046 10 108 1.6 8.0 0.00 2.06 0.03 92 1012.2
20210919101626 10 36 1.6 6.4 0.00 2.06 0.03 92 1012.2
20210919101051 10 0 1.6 9.7 0.00 2.06 0.03 92 1012.2
20210919100546 10 0 3.2 9.7 0.00 2.06 0.03 92 1012.1
20210919100107 10 5 0.0 8.0 0.00 2.06 0.03 92 1012.3
20210919095608 10 13 1.6 9.7 0.03 2.34 0.03 91 1012.2
20210919095045 11 5 4.8 12.9 0.03 2.34 0.03 91 1012.2
20210919094613 11 5 4.8 12.9 0.03 2.34 0.03 91 1012.1
20210919094045 11 9 1.6 6.4 0.03 2.34 0.03 90 1012.1
20210919093614 11 0 1.6 6.4 0.03 2.34 0.03 90 1012.1
20210919093151 11 314 1.6 11.3 0.03 2.34 0.03 90 1012.1
20210919092607 11 244 3.2 19.3 0.03 2.34 0.03 89 1011.9
20210919092047 11 248 4.8 19.3 0.03 2.34 0.03 89 1011.8
20210919091715 11 211 4.8 17.7 0.03 2.34 0.03 90 1011.8
20210919091045 11 180 4.8 20.9 0.03 2.34 0.03 90 1011.7
20210919090601 11 154 6.4 24.1 0.03 2.34 0.03 90 1011.7
20210919090151 11 222 9.7 24.1 0.03 2.34 0.03 90 1011.6
20210919085545 11 206 6.4 16.1 0.00 2.59 0.00 91 1011.7
20210919085048 11 196 9.7 19.3 0.00 2.59 0.00 91 1011.6
20210919084633 11 207 9.7 19.3 0.00 2.59 0.00 91 1011.5
20210919084057 11 254 6.4 16.1 0.00 2.59 0.00 92 1011.5
20210919083609 11 214 4.8 20.9 0.00 2.59 0.00 92 1011.5
20210919083056 11 217 8.0 20.9 0.00 2.59 0.00 92 1011.4
20210919082556 11 161 6.4 19.3 0.00 2.59 0.00 92 1011.3
20210919082108 11 188 9.7 19.3 0.00 2.59 0.00 92 1011.2
20210919081609 11 177 6.4 19.3 0.00 2.59 0.00 92 1011.3
20210919081044 11 173 8.0 19.3 0.00 2.59 0.00 92 1011.2
20210919080547 11 178 8.0 20.9 0.00 2.59 0.00 92 1011.2
20210919080126 11 178 6.4 20.9 0.00 2.59 0.00 92 1011.2
20210919075547 11 173 8.0 19.3 0.00 2.77 0.00 92 1011.3
20210919075100 11 248 6.4 17.7 0.00 2.77 0.00 92 1011.0
20210919074639 11 189 8.0 24.1 0.00 2.77 0.00 93 1011.0
20210919074046 11 192 9.7 24.1 0.00 2.77 0.00 93 1010.9
20210919073546 11 185 9.7 24.1 0.00 2.77 0.00 93 1010.8
20210919073142 11 202 8.0 22.5 0.00 2.77 0.00 93 1010.8
20210919072545 11 194 9.7 24.1 0.00 2.77 0.00 93 1010.8
20210919072052 11 178 8.0 24.1 0.00 2.77 0.00 93 1010.7
20210919071643 11 178 6.4 19.3 0.00 2.77 0.00 93 1010.7
20210919071056 11 214 4.8 17.7 0.03 2.77 0.00 93 1010.6
20210919070556 12 231 8.0 19.3 0.03 2.77 0.00 93 1010.6
20210919070101 12 180 12.9 19.3 0.03 2.77 0.00 93 1010.6
20210919065545 12 190 6.4 16.1 0.03 3.15 2.77 93 1010.6
20210919065107 12 209 8.0 20.9 0.03 3.15 2.77 93 1010.6
20210919064641 12 244 8.0 29.0 0.03 3.15 2.77 94 1010.6